[[{"header":{"parameterUnit":"m.s-1","parameterCategory":1,"la1":30.2991,"la2":30.254,"lo1":-89.0895,"lo2":-89.0444,"dy":0.0017,"dx":0.0017,"nx":28,"ny":28,"refTime":"2025-06-22T03:00:00:Z","depth":0,"parameterNumber":2,"parameterNumberName":"U-component_of_WINDS"},"data":[0,0,0,0,0,0,0,0,0,0,0,0,0,0,0,0,0,0,0,0,0,0,0,0,0,0,0,0,0,0,0,0,0,0,0,0,0,0,0,0,0,0,0,0,0,0,0,0,0,0,0,0,0,0,0,0,0,0,-2.3582,-2.3583,0,-2.3602,-2.3602,-2.3603,-2.3537,-2.3535,-2.3533,-2.3531,-2.3552,-2.3555,-2.3557,0,0,0,0,0,0,0,0,0,0,0,0,0,-2.3488,-2.349,-2.3582,-2.3583,-2.3583,-2.3602,-2.3602,-2.3603,-2.3537,-2.3535,-2.3532,-2.353,-2.3551,-2.3554,-2.3557,0,0,0,0,0,0,0,0,0,0,0,0,0,-2.3521,-2.3491,-2.3582,-2.3552,-2.355,-2.3602,-2.3602,-2.3603,-2.3538,-2.3535,-2.3532,-2.3529,-2.355,-2.3554,-2.3558,-2.364,0,0,-2.3569,-2.357,0,0,0,0,0,0,0,0,-2.3519,-2.3524,-2.3557,-2.3555,-2.3552,-2.3564,-2.3577,-2.3615,-2.3538,-2.3542,-2.3531,-2.3527,-2.3559,-2.3561,-2.3572,-2.3641,-2.3642,-2.3569,-2.3571,-2.3573,-2.3574,0,0,0,0,0,0,0,-2.3517,-2.3523,-2.359,-2.3557,-2.3554,-2.3538,-2.354,-2.3584,-2.3567,-2.3542,-2.3537,-2.354,-2.3557,-2.3568,-2.3572,-2.3642,-2.3569,-2.3572,-2.3574,-2.3576,-2.3778,-2.3782,0,0,0,0,0,0,-2.3518,-2.3522,-2.359,-2.3591,-2.3528,-2.3542,-2.3544,-2.3563,-2.3566,-2.3564,-2.3543,-2.3537,-2.3564,-2.3568,-2.3572,-2.3668,-2.3573,-2.3576,-2.3578,-2.3775,-2.3779,-2.3783,0,0,0,0,0,0,-2.3517,-2.3525,-2.3589,-2.3555,-2.3562,-2.3547,-2.3569,-2.3565,-2.3577,-2.3567,-2.3564,-2.3558,-2.3561,-2.3567,-2.3623,-2.3668,-2.3578,-2.3581,-2.3772,-2.3777,-2.3781,-2.386,0,0,0,0,0,0,-2.3514,-2.3525,-2.3556,-2.3556,-2.3564,-2.364,-2.3572,-2.3568,-2.3583,-2.3576,-2.358,-2.3578,-2.3559,-2.3618,-2.3627,-2.3671,-2.3584,-2.3767,-2.3774,-2.3779,-2.3854,-2.3867,-2.3879,0,0,0,0,0,-2.3511,-2.3578,-2.3558,-2.3566,-2.3602,-2.3642,-2.3647,-2.3624,-2.3587,-2.3618,-2.3612,-2.3578,-2.3662,-2.3624,-2.3634,-2.368,-2.3765,-2.3772,-2.3779,-2.3848,-2.3865,-2.3879,0,0,0,0,0,0,-2.3584,-2.3577,-2.3555,-2.3624,-2.3634,-2.3631,-2.3669,-2.3642,-2.3663,-2.3656,-2.3626,-2.3628,-2.3689,-2.369,-2.3649,-2.3759,-2.3707,-2.3716,-2.3756,-2.3772,-2.3784,-2.3782,-2.3587,0,0,0,0,0,-2.3608,-2.3641,-2.3633,-2.3695,-2.3701,-2.3685,-2.3701,-2.3682,-2.3692,-2.3696,-2.3694,-2.3705,-2.3733,-2.3753,-2.3778,-2.3854,-2.3853,-2.389,-2.3902,-2.3913,-2.3921,-2.396,-2.3976,-2.3806,-2.3806,-2.3806,0,0,-2.3658,-2.3658,-2.3681,-2.3709,-2.3715,-2.3749,-2.3689,-2.3728,-2.3753,-2.3702,-2.3754,-2.3754,-2.3763,-2.3829,-2.3858,-2.3832,-2.3968,-2.3922,-2.393,-2.3933,-2.397,-2.3986,-2.4,-2.3811,-2.381,-2.381,0,0,-2.3766,-2.377,-2.3821,-2.3828,-2.3837,-2.3826,-2.3838,-2.3839,-2.3837,-2.3889,-2.3851,-2.3881,-2.3931,-2.3939,-2.395,-2.4061,-2.4031,-2.4071,-2.4136,-2.4175,-2.4188,-2.42,-2.4239,-2.4254,-2.4079,-2.4079,-2.4079,0,-2.3827,-2.3878,-2.3851,-2.3893,-2.3906,-2.3861,-2.3913,-2.3921,-2.3938,-2.3948,-2.3919,-2.398,-2.3983,-2.405,-2.4077,-2.4088,-2.4101,-2.407,-2.4189,-2.42,-2.4211,-2.4248,-2.4262,-2.4084,-2.4083,-2.4083,-2.4082,0,-2.3952,-2.3987,-2.4028,-2.4045,-2.4063,-2.4109,-2.409,-2.4112,-2.4091,-2.4083,-2.4137,-2.4139,-2.4165,-2.4179,-2.416,-2.4243,-2.4227,-2.4193,-2.414,-2.4232,-2.4266,-2.428,-2.4091,-2.4089,-2.4088,-2.4086,0,0,-2.4107,-2.4108,-2.4124,-2.4131,-2.4137,-2.4164,-2.4208,-2.4233,-2.4251,-2.4265,-2.4301,-2.4344,-2.4313,-2.4326,-2.4307,-2.4341,-2.4428,-2.4303,-2.4303,-2.4326,-2.4519,-2.4544,-2.4561,-2.4408,-2.4411,-2.4413,-2.4518,0,-2.4213,-2.4288,-2.4266,-2.4342,-2.4374,-2.4331,-2.4369,-2.4378,-2.4371,-2.4398,-2.4391,-2.4421,-2.4378,-2.4385,-2.4417,-2.4411,-2.4467,-2.4403,-2.4442,-2.4443,-2.444,-2.4579,-2.4605,-2.4705,-2.4532,-2.4534,-2.4536,0,-2.4347,-2.4365,-2.4444,-2.4444,-2.4457,-2.4492,-2.4512,-2.4538,-2.4546,-2.4539,-2.4553,-2.4527,-2.457,-2.4518,-2.4577,-2.4534,-2.4549,-2.4548,-2.4551,-2.4554,-2.4495,-2.4585,-2.4736,-2.4751,-2.4556,-2.4555,-2.4553,0,-2.4451,-2.4495,-2.4548,-2.4555,-2.4557,-2.4583,-2.4585,-2.459,-2.4606,-2.4624,-2.4634,-2.4657,-2.4669,-2.4687,-2.4668,-2.4632,-2.4731,-2.4676,-2.4726,-2.4726,-2.4748,-2.4747,-2.4903,-2.4759,-2.4758,-2.4758,-2.4758,0,-2.4572,-2.4622,-2.4595,-2.4627,-2.4682,-2.4655,-2.471,-2.4707,-2.4712,-2.4743,-2.4708,-2.4738,-2.4712,-2.4739,-2.4725,-2.4776,-2.4782,-2.4777,-2.4773,-2.478,-2.4781,-2.4789,-2.4781,-2.4762,-2.4761,-2.476,-2.476,0,-2.4698,-2.4682,-2.4736,-2.4733,-2.4734,-2.4774,-2.4771,-2.4801,-2.4792,-2.4832,-2.484,-2.4825,-2.4856,-2.4839,-2.4871,-2.4861,-2.4927,-2.4914,-2.4924,-2.492,-2.4971,-2.4966,-2.5137,-2.5158,-2.5001,-2.5002,-2.5004,0,-2.4775,-2.4813,-2.4813,-2.4831,-2.4836,-2.4865,-2.4881,-2.4856,-2.4874,-2.4886,-2.4915,-2.4942,-2.4963,-2.5014,-2.5007,-2.5031,-2.5017,-2.5075,-2.502,-2.5026,-2.5017,-2.5015,-2.5018,-2.5086,-2.5088,-2.509,-2.5091,0,-2.4915,-2.4905,-2.4929,-2.495,-2.4969,-2.4985,-2.4997,-2.5014,-2.4989,-2.5011,-2.5042,-2.5058,-2.509,-2.5118,-2.5138,-2.514,-2.5112,-2.5108,-2.5121,-2.5129,-2.5133,-2.5131,-2.4954,-2.5104,-2.5103,-2.5102,-2.5101,-2.5101,-2.5019,-2.5049,-2.5054,-2.5082,-2.5088,-2.5101,-2.5128,-2.5122,-2.5147,-2.5171,-2.5155,-2.5191,-2.5198,-2.5223,-2.5229,-2.5256,-2.5233,-2.5252,-2.5256,-2.5261,-2.5267,-2.5129,-2.526,-2.526,-2.5259,-2.5259,-2.5259,0,-2.5156,-2.5157,-2.5182,-2.52,-2.5222,-2.5193,-2.5205,-2.5225,-2.5257,-2.5266,-2.5286,-2.5321,-2.5348,-2.5343,-2.5367,-2.539,-2.5378,-2.5397,-2.5395,-2.5396,-2.5287,-2.5274,-2.5407,-2.5407,-2.5407,-2.5407,-2.5407,-2.5407,-2.523,-2.528,-2.527,-2.5323,-2.5324,-2.5358,-2.5368,-2.5379,-2.5386,-2.5426,-2.5448,-2.5444,-2.5447,-2.5471,-2.5494,-2.5492,-2.5502,-2.5526,-2.5519,-2.5418,-2.5404,-2.539,-2.5377,-2.5529,-2.5529,-2.5625,-2.5626,-2.5627]},{"header":{"parameterUnit":"m.s-1","parameterCategory":1,"la1":30.2991,"la2":30.254,"lo1":-89.0895,"lo2":-89.0444,"dy":0.0017,"dx":0.0017,"nx":28,"ny":28,"refTime":"2025-06-22T03:00:00:Z","depth":0,"parameterNumber":3,"parameterNumberName":"V-component_of_WINDS"},"data":[0,0,0,0,0,0,0,0,0,0,0,0,0,0,0,0,0,0,0,0,0,0,0,0,0,0,0,0,0,0,0,0,0,0,0,0,0,0,0,0,0,0,0,0,0,0,0,0,0,0,0,0,0,0,0,0,0,0,1.4624,1.4624,0,1.4699,1.47,1.4701,1.4639,1.4636,1.4634,1.4631,1.4711,1.4716,1.472,0,0,0,0,0,0,0,0,0,0,0,0,0,1.4429,1.4433,1.4624,1.4625,1.4625,1.4699,1.47,1.4701,1.4639,1.4636,1.4633,1.463,1.471,1.4715,1.4721,0,0,0,0,0,0,0,0,0,0,0,0,0,1.451,1.4434,1.4623,1.4604,1.4602,1.4699,1.47,1.4701,1.464,1.4636,1.4632,1.4629,1.4708,1.4715,1.4721,1.4842,0,0,1.4742,1.4745,0,0,0,0,0,0,0,0,1.4506,1.4517,1.4606,1.4605,1.4604,1.4655,1.4661,1.4748,1.4641,1.4626,1.4631,1.4627,1.4696,1.4704,1.4726,1.4846,1.4849,1.4743,1.4747,1.475,1.4752,0,0,0,0,0,0,0,1.45,1.4514,1.4653,1.4607,1.4606,1.4592,1.4599,1.4677,1.4682,1.4627,1.4623,1.4632,1.4695,1.472,1.4728,1.485,1.4743,1.4749,1.4753,1.4756,1.5074,1.5078,0,0,0,0,0,0,1.4496,1.4509,1.4651,1.4656,1.4544,1.4598,1.4606,1.4643,1.4681,1.4683,1.4635,1.4629,1.471,1.472,1.473,1.4875,1.475,1.4756,1.476,1.5069,1.5074,1.5079,0,0,0,0,0,0,1.4492,1.4509,1.4648,1.4581,1.4598,1.4606,1.4648,1.4647,1.4672,1.4687,1.4688,1.466,1.4707,1.4721,1.4815,1.4877,1.4759,1.4766,1.5064,1.5071,1.5077,1.5166,0,0,0,0,0,0,1.4487,1.4508,1.4554,1.4583,1.4602,1.4731,1.4651,1.4651,1.4683,1.4676,1.4711,1.4713,1.4705,1.4805,1.4822,1.4885,1.4771,1.5059,1.5067,1.5075,1.5157,1.5174,1.5189,0,0,0,0,0,1.448,1.4576,1.4556,1.4574,1.4658,1.4734,1.4745,1.4734,1.4688,1.4735,1.4745,1.4712,1.4867,1.4815,1.4833,1.4899,1.5055,1.5065,1.5074,1.515,1.5171,1.5189,0,0,0,0,0,0,1.4555,1.4579,1.4558,1.4666,1.4698,1.4724,1.4782,1.4756,1.4803,1.4794,1.4779,1.4787,1.4887,1.4902,1.4843,1.5019,1.4954,1.4968,1.5005,1.5025,1.5041,1.5036,1.4777,0,0,0,0,0,1.4583,1.4642,1.4661,1.4754,1.4772,1.4774,1.4807,1.4795,1.4829,1.4842,1.4859,1.4894,1.4951,1.4988,1.5041,1.5158,1.5166,1.5213,1.5229,1.5242,1.5255,1.5319,1.5341,1.5111,1.5111,1.5111,0,0,1.4644,1.4665,1.4703,1.477,1.4794,1.4856,1.4786,1.4855,1.4901,1.4853,1.4943,1.4957,1.4994,1.5101,1.5149,1.5117,1.532,1.5254,1.5265,1.527,1.5332,1.5353,1.5373,1.5118,1.5117,1.5116,0,0,1.4787,1.4808,1.4889,1.4914,1.495,1.4951,1.4971,1.5,1.5007,1.5097,1.5062,1.5117,1.5215,1.5244,1.5271,1.5425,1.5397,1.5442,1.5526,1.5589,1.5608,1.5624,1.568,1.57,1.5454,1.5455,1.5455,0,1.4858,1.495,1.4934,1.5005,1.5036,1.4994,1.5077,1.5102,1.5155,1.5178,1.5141,1.5263,1.5285,1.5398,1.5436,1.5459,1.5482,1.5439,1.5606,1.5622,1.5637,1.569,1.5712,1.546,1.5459,1.5459,1.5458,0,1.5036,1.51,1.5161,1.5213,1.525,1.5327,1.5323,1.5364,1.5349,1.5354,1.5446,1.5471,1.5529,1.5555,1.5541,1.5667,1.5646,1.5608,1.5543,1.5664,1.5715,1.5735,1.5468,1.5466,1.5464,1.5463,0,0,1.523,1.527,1.5293,1.5317,1.5354,1.5404,1.5478,1.5534,1.557,1.5607,1.5671,1.5754,1.5719,1.5751,1.5739,1.5794,1.5917,1.575,1.575,1.5782,1.6059,1.6089,1.6113,1.5897,1.5901,1.5904,1.6056,0,1.5376,1.5505,1.5493,1.5617,1.5677,1.5637,1.5703,1.5734,1.574,1.5793,1.58,1.586,1.5808,1.5827,1.588,1.5891,1.5972,1.5879,1.5958,1.5961,1.5952,1.6139,1.6171,1.6313,1.6076,1.6079,1.6081,0,1.5564,1.5607,1.5737,1.5765,1.579,1.5849,1.59,1.5949,1.5984,1.5985,1.6019,1.5999,1.6076,1.6007,1.6114,1.6051,1.6082,1.6092,1.6097,1.6106,1.603,1.6155,1.6358,1.638,1.6112,1.6109,1.6107,0,1.5694,1.5785,1.5875,1.5895,1.593,1.5973,1.599,1.602,1.6054,1.6099,1.6121,1.6174,1.6204,1.6245,1.624,1.619,1.6349,1.628,1.6354,1.6354,1.6391,1.6389,1.6605,1.6408,1.6407,1.6407,1.6407,0,1.586,1.5941,1.5934,1.599,1.608,1.6065,1.6155,1.6167,1.6194,1.6252,1.622,1.6276,1.6264,1.632,1.6316,1.6406,1.6419,1.6423,1.6421,1.6427,1.6427,1.6449,1.644,1.6413,1.6411,1.641,1.6409,0,1.6022,1.602,1.6116,1.614,1.6149,1.6215,1.6236,1.6289,1.6293,1.6367,1.6383,1.6389,1.6453,1.6451,1.6523,1.6521,1.6632,1.6618,1.662,1.6618,1.6693,1.6687,1.6932,1.6964,1.6745,1.6747,1.6748,0,1.6129,1.619,1.6222,1.6258,1.6277,1.6336,1.6371,1.6358,1.6396,1.6439,1.6488,1.6548,1.6596,1.6699,1.6711,1.6767,1.6755,1.6837,1.6763,1.6767,1.6759,1.6756,1.6763,1.6852,1.6855,1.6857,1.6858,0,1.6319,1.6315,1.6366,1.6417,1.6459,1.6499,1.6536,1.6567,1.6559,1.6603,1.6667,1.6704,1.6778,1.6839,1.6892,1.691,1.6885,1.6881,1.6902,1.6909,1.6909,1.6912,1.6662,1.6876,1.6874,1.6873,1.6872,1.6871,1.6459,1.6512,1.6543,1.6601,1.6626,1.6661,1.6712,1.6722,1.6775,1.6833,1.6823,1.6895,1.6928,1.6997,1.702,1.7077,1.7048,1.7077,1.7085,1.7093,1.7102,1.6898,1.7086,1.7086,1.7085,1.7085,1.7085,0,1.6649,1.6667,1.672,1.6772,1.6818,1.6787,1.6825,1.6867,1.693,1.6963,1.701,1.7085,1.7144,1.716,1.7217,1.726,1.7249,1.7275,1.7273,1.7278,1.7124,1.7101,1.7283,1.7283,1.7283,1.7283,1.7283,1.7283,1.6754,1.6843,1.6843,1.6945,1.6961,1.7032,1.7057,1.7089,1.7115,1.7199,1.7248,1.7257,1.7284,1.7342,1.7395,1.7399,1.7422,1.7454,1.7453,1.7309,1.7289,1.727,1.7249,1.7458,1.7459,1.7602,1.7604,1.7605]}]]